Time,TemperatureF,DewpointF,PressureIn,WindDirection,WindDirectionDegrees,WindSpeedMPH,WindSpeedGustMPH,Humidity,HourlyPrecipIn,Conditions,Clouds,dailyrainin,SoftwareType,DateUTC
2013-02-01 00:01:00,21.0,21.0,-100.00,NNW,333,3.0,8.0,100,-99.99,,,-99.99,,2013-02-01 07:01:00,
2013-02-01 00:11:00,21.0,21.0,-100.00,NNW,333,3.0,8.0,100,-99.99,,,-99.99,,2013-02-01 07:11:00,
2013-02-01 00:21:00,21.0,21.0,-100.00,ENE,73,1.0,3.0,100,-99.99,,,-99.99,,2013-02-01 07:21:00,
2013-02-01 00:32:00,21.0,21.0,-100.00,ENE,73,1.0,3.0,100,-99.99,,,-99.99,,2013-02-01 07:32:00,
2013-02-01 00:41:00,21.0,21.0,-100.00,ENE,73,1.0,3.0,100,-99.99,,,-99.99,,2013-02-01 07:41:00,
2013-02-01 00:52:00,21.0,21.0,-100.00,NNW,330,9.0,17.0,100,-99.99,,,-99.99,,2013-02-01 07:52:00,
2013-02-01 01:01:00,21.0,21.0,-100.00,NNW,329,8.0,19.0,100,-99.99,,,-99.99,,2013-02-01 08:01:00,
2013-02-01 01:11:00,21.0,21.0,-100.00,NNW,329,8.0,19.0,100,-99.99,,,-99.99,,2013-02-01 08:11:00,
2013-02-01 01:21:00,21.0,21.0,-100.00,NW,322,9.0,15.0,100,-99.99,,,-99.99,,2013-02-01 08:21:00,
2013-02-01 01:31:00,21.0,21.0,-100.00,NW,318,11.0,19.0,100,-99.99,,,-99.99,,2013-02-01 08:31:00,
2013-02-01 01:42:00,21.0,21.0,-100.00,NW,318,11.0,19.0,100,-99.99,,,-99.99,,2013-02-01 08:42:00,
2013-02-01 01:52:00,21.0,21.0,-100.00,NW,323,11.0,18.0,100,-99.99,,,-99.99,,2013-02-01 08:52:00,
2013-02-01 02:01:00,21.0,21.0,-100.00,NW,322,14.0,19.0,100,-99.99,,,-99.99,,2013-02-01 09:01:00,
2013-02-01 02:11:00,21.0,21.0,-100.00,NW,322,14.0,19.0,100,-99.99,,,-99.99,,2013-02-01 09:11:00,
2013-02-01 02:21:00,21.0,21.0,-100.00,NNW,329,11.0,16.0,100,-99.99,,,-99.99,,2013-02-01 09:21:00,
2013-02-01 02:32:00,21.0,21.0,-100.00,NW,316,9.0,18.0,100,-99.99,,,-99.99,,2013-02-01 09:32:00,
2013-02-01 02:41:00,21.0,21.0,-100.00,NW,316,9.0,18.0,100,-99.99,,,-99.99,,2013-02-01 09:41:00,
2013-02-01 02:52:00,21.0,21.0,-100.00,NW,321,8.0,12.0,100,-99.99,,,-99.99,,2013-02-01 09:52:00,
2013-02-01 03:01:00,21.0,21.0,-100.00,NNW,327,8.0,14.0,100,-99.99,,,-99.99,,2013-02-01 10:01:00,
2013-02-01 03:11:00,21.0,21.0,-100.00,NNW,327,8.0,14.0,100,-99.99,,,-99.99,,2013-02-01 10:11:00,
2013-02-01 03:21:00,20.0,20.0,-100.00,NNW,329,10.0,15.0,100,-99.99,,,-99.99,,2013-02-01 10:21:00,
2013-02-01 03:31:00,20.0,20.0,-100.00,NNW,327,11.0,16.0,100,-99.99,,,-99.99,,2013-02-01 10:31:00,
2013-02-01 03:42:00,20.0,20.0,-100.00,NNW,327,11.0,16.0,100,-99.99,,,-99.99,,2013-02-01 10:42:00,
2013-02-01 03:53:00,20.0,20.0,-100.00,NNW,334,12.0,20.0,100,-99.99,,,-99.99,,2013-02-01 10:53:00,
2013-02-01 04:01:00,20.0,20.0,-100.00,NNW,330,15.0,26.0,100,-99.99,,,-99.99,,2013-02-01 11:01:00,
2013-02-01 04:11:00,20.0,20.0,-100.00,NNW,330,15.0,26.0,100,-99.99,,,-99.99,,2013-02-01 11:11:00,
2013-02-01 04:21:00,20.0,20.0,-100.00,NW,325,13.0,20.0,100,-99.99,,,-99.99,,2013-02-01 11:21:00,
2013-02-01 04:32:00,20.0,20.0,-100.00,NW,319,10.0,18.0,100,-99.99,,,-99.99,,2013-02-01 11:32:00,
2013-02-01 04:41:00,20.0,20.0,-100.00,NW,319,10.0,18.0,100,-99.99,,,-99.99,,2013-02-01 11:41:00,
2013-02-01 04:53:00,20.0,20.0,-100.00,NNW,328,11.0,21.0,100,-99.99,,,-99.99,,2013-02-01 11:53:00,
2013-02-01 05:02:00,20.0,20.0,-100.00,NW,307,9.0,19.0,100,-99.99,,,-99.99,,2013-02-01 12:02:00,
2013-02-01 05:12:00,20.0,20.0,-100.00,NW,307,9.0,19.0,100,-99.99,,,-99.99,,2013-02-01 12:12:00,
2013-02-01 05:22:00,20.0,20.0,-100.00,WNW,295,7.0,11.0,100,-99.99,,,-99.99,,2013-02-01 12:22:00,
2013-02-01 05:32:00,20.0,20.0,-100.00,WNW,300,5.0,14.0,100,-99.99,,,-99.99,,2013-02-01 12:32:00,
2013-02-01 05:42:00,20.0,20.0,-100.00,WNW,300,5.0,14.0,100,-99.99,,,-99.99,,2013-02-01 12:42:00,
2013-02-01 05:52:00,19.0,19.0,-100.00,NW,325,5.0,10.0,100,-99.99,,,-99.99,,2013-02-01 12:52:00,
2013-02-01 06:02:00,20.0,20.0,-100.00,NNW,335,5.0,11.0,100,-99.99,,,-99.99,,2013-02-01 13:02:00,
2013-02-01 06:11:00,20.0,20.0,-100.00,NNW,335,5.0,11.0,100,-99.99,,,-99.99,,2013-02-01 13:11:00,
2013-02-01 06:21:00,19.0,19.0,-100.00,NNW,331,9.0,15.0,100,-99.99,,,-99.99,,2013-02-01 13:21:00,
2013-02-01 06:32:00,19.0,19.0,-100.00,NNW,330,9.0,14.0,100,-99.99,,,-99.99,,2013-02-01 13:32:00,
2013-02-01 06:42:00,19.0,19.0,-100.00,NNW,330,9.0,14.0,100,-99.99,,,-99.99,,2013-02-01 13:42:00,
2013-02-01 06:53:00,19.0,19.0,-100.00,NW,319,9.0,16.0,100,-99.99,,,-99.99,,2013-02-01 13:53:00,
2013-02-01 07:03:00,20.0,20.0,-100.00,NW,321,10.0,19.0,100,-99.99,,,-99.99,,2013-02-01 14:03:00,
2013-02-01 07:11:00,20.0,20.0,-100.00,NW,321,10.0,19.0,100,-99.99,,,-99.99,,2013-02-01 14:11:00,
2013-02-01 07:21:00,19.0,19.0,-100.00,NW,314,10.0,19.0,100,-99.99,,,-99.99,,2013-02-01 14:21:00,
2013-02-01 07:32:00,19.0,19.0,-100.00,NW,313,9.0,19.0,100,-99.99,,,-99.99,,2013-02-01 14:32:00,
2013-02-01 07:42:00,19.0,19.0,-100.00,NW,313,9.0,19.0,100,-99.99,,,-99.99,,2013-02-01 14:42:00,
2013-02-01 07:52:00,19.0,19.0,-100.00,NW,319,9.0,18.0,100,-99.99,,,-99.99,,2013-02-01 14:52:00,
2013-02-01 08:02:00,19.0,19.0,-100.00,NW,315,11.0,20.0,100,-99.99,,,-99.99,,2013-02-01 15:02:00,
2013-02-01 08:12:00,19.0,19.0,-100.00,NW,315,11.0,20.0,100,-99.99,,,-99.99,,2013-02-01 15:12:00,
2013-02-01 08:21:00,20.0,20.0,-100.00,NW,312,11.0,17.0,100,-99.99,,,-99.99,,2013-02-01 15:21:00,
2013-02-01 08:32:00,20.0,20.0,-100.00,NW,307,8.0,14.0,100,-99.99,,,-99.99,,2013-02-01 15:32:00,
2013-02-01 08:42:00,20.0,20.0,-100.00,NW,307,8.0,14.0,100,-99.99,,,-99.99,,2013-02-01 15:42:00,
2013-02-01 08:52:00,19.0,19.0,-100.00,NW,308,8.0,13.0,100,-99.99,,,-99.99,,2013-02-01 15:52:00,
2013-02-01 09:02:00,20.0,20.0,-100.00,NW,310,9.0,14.0,100,-99.99,,,-99.99,,2013-02-01 16:02:00,
2013-02-01 09:11:00,20.0,20.0,-100.00,NW,310,9.0,14.0,100,-99.99,,,-99.99,,2013-02-01 16:11:00,
2013-02-01 09:21:00,20.0,20.0,-100.00,NW,317,7.0,11.0,100,-99.99,,,-99.99,,2013-02-01 16:21:00,
2013-02-01 09:32:00,20.0,20.0,-100.00,NW,313,6.0,11.0,100,-99.99,,,-99.99,,2013-02-01 16:32:00,
2013-02-01 09:42:00,20.0,20.0,-100.00,NW,313,6.0,11.0,100,-99.99,,,-99.99,,2013-02-01 16:42:00,
2013-02-01 09:52:00,20.0,20.0,-100.00,NNW,327,7.0,13.0,100,-99.99,,,-99.99,,2013-02-01 16:52:00,
2013-02-01 10:02:00,21.0,21.0,-100.00,NW,318,10.0,20.0,100,-99.99,,,-99.99,,2013-02-01 17:02:00,
2013-02-01 10:11:00,21.0,21.0,-100.00,NW,318,10.0,20.0,100,-99.99,,,-99.99,,2013-02-01 17:11:00,
2013-02-01 10:22:00,21.0,21.0,-100.00,NNW,338,9.0,17.0,100,-99.99,,,-99.99,,2013-02-01 17:22:00,
2013-02-01 10:32:00,21.0,21.0,-100.00,NNW,344,9.0,13.0,100,-99.99,,,-99.99,,2013-02-01 17:32:00,
2013-02-01 10:42:00,21.0,21.0,-100.00,NNW,344,9.0,13.0,100,-99.99,,,-99.99,,2013-02-01 17:42:00,
2013-02-01 10:53:00,22.0,22.0,-100.00,North,349,6.0,11.0,100,-99.99,,,-99.99,,2013-02-01 17:53:00,
2013-02-01 11:02:00,22.0,22.0,-100.00,NNW,342,8.0,13.0,100,-99.99,,,-99.99,,2013-02-01 18:02:00,
2013-02-01 11:12:00,22.0,22.0,-100.00,NNW,342,8.0,13.0,100,-99.99,,,-99.99,,2013-02-01 18:12:00,
2013-02-01 11:22:00,23.0,23.0,-100.00,NNW,336,6.0,12.0,100,-99.99,,,-99.99,,2013-02-01 18:22:00,
2013-02-01 11:31:00,23.0,23.0,-100.00,NNW,336,8.0,13.0,100,-99.99,,,-99.99,,2013-02-01 18:31:00,
2013-02-01 11:42:00,23.0,23.0,-100.00,NNW,336,8.0,13.0,100,-99.99,,,-99.99,,2013-02-01 18:42:00,
2013-02-01 11:53:00,23.0,23.0,-100.00,NNW,341,8.0,16.0,100,-99.99,,,-99.99,,2013-02-01 18:53:00,
2013-02-01 12:02:00,23.0,23.0,-100.00,NNW,340,7.0,12.0,100,-99.99,,,-99.99,,2013-02-01 19:02:00,
2013-02-01 12:11:00,23.0,23.0,-100.00,NNW,340,7.0,12.0,100,-99.99,,,-99.99,,2013-02-01 19:11:00,
2013-02-01 12:21:00,25.0,25.0,-100.00,North,352,6.0,14.0,100,-99.99,,,-99.99,,2013-02-01 19:21:00,
2013-02-01 12:32:00,24.0,24.0,-100.00,NNW,348,11.0,16.0,100,-99.99,,,-99.99,,2013-02-01 19:32:00,
2013-02-01 12:41:00,24.0,24.0,-100.00,NNW,348,11.0,16.0,100,-99.99,,,-99.99,,2013-02-01 19:41:00,
2013-02-01 12:52:00,24.0,24.0,-100.00,NNW,332,12.0,19.0,100,-99.99,,,-99.99,,2013-02-01 19:52:00,
2013-02-01 13:02:00,24.0,24.0,-100.00,NNW,340,13.0,21.0,100,-99.99,,,-99.99,,2013-02-01 20:02:00,
2013-02-01 13:11:00,24.0,24.0,-100.00,NNW,340,13.0,21.0,100,-99.99,,,-99.99,,2013-02-01 20:11:00,
2013-02-01 13:21:00,24.0,24.0,-100.00,North,2,5.0,11.0,100,-99.99,,,-99.99,,2013-02-01 20:21:00,
2013-02-01 13:31:00,24.0,24.0,-100.00,North,2,7.0,11.0,100,-99.99,,,-99.99,,2013-02-01 20:31:00,
2013-02-01 13:41:00,24.0,24.0,-100.00,North,2,7.0,11.0,100,-99.99,,,-99.99,,2013-02-01 20:41:00,
2013-02-01 13:52:00,25.0,25.0,-100.00,North,358,6.0,11.0,100,-99.99,,,-99.99,,2013-02-01 20:52:00,
2013-02-01 14:01:00,24.0,24.0,-100.00,North,358,8.0,14.0,100,-99.99,,,-99.99,,2013-02-01 21:01:00,
2013-02-01 14:11:00,24.0,24.0,-100.00,North,358,8.0,14.0,100,-99.99,,,-99.99,,2013-02-01 21:11:00,
2013-02-01 14:21:00,24.0,24.0,-100.00,North,356,8.0,14.0,100,-99.99,,,-99.99,,2013-02-01 21:21:00,
2013-02-01 14:31:00,25.0,25.0,-100.00,North,358,8.0,12.0,100,-99.99,,,-99.99,,2013-02-01 21:31:00,
2013-02-01 14:41:00,25.0,25.0,-100.00,North,358,8.0,12.0,100,-99.99,,,-99.99,,2013-02-01 21:41:00,
2013-02-01 14:52:00,25.0,25.0,-100.00,NNW,348,10.0,17.0,100,-99.99,,,-99.99,,2013-02-01 21:52:00,
2013-02-01 15:02:00,25.0,25.0,-100.00,NNW,338,10.0,16.0,100,-99.99,,,-99.99,,2013-02-01 22:02:00,
2013-02-01 15:11:00,25.0,25.0,-100.00,NNW,338,10.0,16.0,100,-99.99,,,-99.99,,2013-02-01 22:11:00,
2013-02-01 15:21:00,25.0,25.0,-100.00,NNW,344,8.0,16.0,100,-99.99,,,-99.99,,2013-02-01 22:21:00,
2013-02-01 15:32:00,25.0,25.0,-100.00,NW,315,13.0,22.0,98,-99.99,,,-99.99,,2013-02-01 22:32:00,
2013-02-01 15:42:00,25.0,25.0,-100.00,NW,315,13.0,22.0,98,-99.99,,,-99.99,,2013-02-01 22:42:00,
2013-02-01 15:52:00,25.0,24.0,-100.00,NW,316,14.0,23.0,97,-99.99,,,-99.99,,2013-02-01 22:52:00,
2013-02-01 16:01:00,25.0,24.0,-100.00,NNW,329,11.0,17.0,97,-99.99,,,-99.99,,2013-02-01 23:01:00,
2013-02-01 16:11:00,25.0,24.0,-100.00,NNW,329,11.0,17.0,97,-99.99,,,-99.99,,2013-02-01 23:11:00,
2013-02-01 16:21:00,25.0,24.0,-100.00,NNW,333,13.0,18.0,97,-99.99,,,-99.99,,2013-02-01 23:21:00,
2013-02-01 16:31:00,25.0,24.0,-100.00,NW,320,13.0,22.0,97,-99.99,,,-99.99,,2013-02-01 23:31:00,
2013-02-01 16:41:00,25.0,24.0,-100.00,NW,320,13.0,22.0,97,-99.99,,,-99.99,,2013-02-01 23:41:00,
2013-02-01 16:52:00,24.0,23.0,-100.00,NW,311,13.0,21.0,94,-99.99,,,-99.99,,2013-02-01 23:52:00,
2013-02-01 17:01:00,24.0,22.0,-100.00,WNW,299,16.0,23.0,91,-99.99,,,-99.99,,2013-02-02 00:01:00,
2013-02-01 17:11:00,24.0,22.0,-100.00,WNW,299,16.0,23.0,91,-99.99,,,-99.99,,2013-02-02 00:11:00,
2013-02-01 17:21:00,24.0,22.0,-100.00,WNW,296,13.0,25.0,92,-99.99,,,-99.99,,2013-02-02 00:21:00,
2013-02-01 17:32:00,24.0,20.0,-100.00,NW,307,10.0,19.0,86,-99.99,,,-99.99,,2013-02-02 00:32:00,
2013-02-01 17:41:00,24.0,20.0,-100.00,NW,307,10.0,19.0,86,-99.99,,,-99.99,,2013-02-02 00:41:00,
2013-02-01 17:52:00,23.0,20.0,-100.00,NNW,331,9.0,18.0,87,-99.99,,,-99.99,,2013-02-02 00:52:00,
2013-02-01 18:01:00,24.0,23.0,-100.00,South,172,5.0,8.0,96,-99.99,,,-99.99,,2013-02-02 01:01:00,
2013-02-01 18:11:00,24.0,23.0,-100.00,South,172,5.0,8.0,96,-99.99,,,-99.99,,2013-02-02 01:11:00,
2013-02-01 18:21:00,23.0,19.0,-100.00,North,355,5.0,12.0,84,-99.99,,,-99.99,,2013-02-02 01:21:00,
2013-02-01 18:31:00,23.0,17.0,-100.00,North,350,12.0,19.0,77,-99.99,,,-99.99,,2013-02-02 01:31:00,
2013-02-01 18:41:00,23.0,17.0,-100.00,North,350,12.0,19.0,77,-99.99,,,-99.99,,2013-02-02 01:41:00,
2013-02-01 18:52:00,22.0,16.0,-100.00,NNW,333,10.0,15.0,79,-99.99,,,-99.99,,2013-02-02 01:52:00,
2013-02-01 19:01:00,23.0,16.0,-100.00,NNW,343,10.0,16.0,74,-99.99,,,-99.99,,2013-02-02 02:01:00,
2013-02-01 19:11:00,23.0,16.0,-100.00,NNW,343,10.0,16.0,74,-99.99,,,-99.99,,2013-02-02 02:11:00,
2013-02-01 19:21:00,23.0,15.0,-100.00,NNW,336,12.0,18.0,72,-99.99,,,-99.99,,2013-02-02 02:21:00,
2013-02-01 19:31:00,23.0,15.0,-100.00,NW,322,13.0,20.0,70,-99.99,,,-99.99,,2013-02-02 02:31:00,
2013-02-01 19:41:00,23.0,15.0,-100.00,NW,322,13.0,20.0,70,-99.99,,,-99.99,,2013-02-02 02:41:00,
2013-02-01 19:52:00,23.0,13.0,-100.00,NW,324,12.0,18.0,65,-99.99,,,-99.99,,2013-02-02 02:52:00,
2013-02-01 20:02:00,23.0,12.0,-100.00,NNW,334,10.0,17.0,63,-99.99,,,-99.99,,2013-02-02 03:02:00,
2013-02-01 20:11:00,23.0,12.0,-100.00,NNW,334,10.0,17.0,63,-99.99,,,-99.99,,2013-02-02 03:11:00,
2013-02-01 20:21:00,23.0,13.0,-100.00,NNW,343,11.0,19.0,64,-99.99,,,-99.99,,2013-02-02 03:21:00,
2013-02-01 20:32:00,22.0,12.0,-100.00,NNW,344,12.0,15.0,66,-99.99,,,-99.99,,2013-02-02 03:32:00,
2013-02-01 20:42:00,22.0,12.0,-100.00,NNW,344,12.0,15.0,66,-99.99,,,-99.99,,2013-02-02 03:42:00,
2013-02-01 20:52:00,22.0,11.0,-100.00,NNW,335,13.0,17.0,62,-99.99,,,-99.99,,2013-02-02 03:52:00,
2013-02-01 21:01:00,23.0,10.0,-100.00,NNW,332,15.0,22.0,57,-99.99,,,-99.99,,2013-02-02 04:01:00,
2013-02-01 21:11:00,23.0,10.0,-100.00,NNW,332,15.0,22.0,57,-99.99,,,-99.99,,2013-02-02 04:11:00,
2013-02-01 21:21:00,23.0,9.0,-100.00,NNW,336,18.0,22.0,54,-99.99,,,-99.99,,2013-02-02 04:21:00,
2013-02-01 21:32:00,23.0,8.0,-100.00,NNW,328,16.0,20.0,53,-99.99,,,-99.99,,2013-02-02 04:32:00,
2013-02-01 21:41:00,23.0,8.0,-100.00,NNW,328,16.0,20.0,53,-99.99,,,-99.99,,2013-02-02 04:41:00,
2013-02-01 21:52:00,23.0,9.0,-100.00,NNW,335,13.0,17.0,54,-99.99,,,-99.99,,2013-02-02 04:52:00,
2013-02-01 22:02:00,23.0,9.0,-100.00,NNW,329,11.0,16.0,54,-99.99,,,-99.99,,2013-02-02 05:02:00,
2013-02-01 22:11:00,23.0,9.0,-100.00,NNW,329,11.0,16.0,54,-99.99,,,-99.99,,2013-02-02 05:11:00,
2013-02-01 22:22:00,23.0,8.0,-100.00,NW,325,9.0,12.0,52,-99.99,,,-99.99,,2013-02-02 05:22:00,
2013-02-01 22:32:00,23.0,7.0,-100.00,NNW,339,11.0,14.0,50,-99.99,,,-99.99,,2013-02-02 05:32:00,
2013-02-01 22:41:00,23.0,7.0,-100.00,NNW,339,11.0,14.0,50,-99.99,,,-99.99,,2013-02-02 05:41:00,
2013-02-01 22:52:00,23.0,8.0,-100.00,NNW,334,11.0,14.0,52,-99.99,,,-99.99,,2013-02-02 05:52:00,
2013-02-01 23:02:00,22.0,7.0,-100.00,NNW,328,7.0,12.0,52,-99.99,,,-99.99,,2013-02-02 06:02:00,
2013-02-01 23:12:00,22.0,7.0,-100.00,NNW,328,7.0,12.0,52,-99.99,,,-99.99,,2013-02-02 06:12:00,
2013-02-01 23:21:00,22.0,8.0,-100.00,NW,324,8.0,12.0,53,-99.99,,,-99.99,,2013-02-02 06:21:00,
2013-02-01 23:31:00,22.0,8.0,-100.00,NW,323,9.0,12.0,54,-99.99,,,-99.99,,2013-02-02 06:31:00,
2013-02-01 23:41:00,22.0,8.0,-100.00,NW,323,9.0,12.0,54,-99.99,,,-99.99,,2013-02-02 06:41:00,
2013-02-01 23:52:00,22.0,8.0,-100.00,NNW,341,5.0,10.0,53,-99.99,,,-99.99,,2013-02-02 06:52:00,